Fort Drum, NY

6:03 PM EDT on July 26, 2017 (GMT -0400)
Wheeler-Sack Army Air Field

Weather History for KGTB - September, 2013

Change the Weather History Date:

Monday, September 16, 2013

  Actual Average Record
Temperature  
Mean Temperature 46 °F -  
Max Temperature 54 °F 68 °F 80 °F (2004)
Min Temperature 36 °F 48 °F 35 °F (2007)
Degree Days  
Heating Degree Days 20    
Moisture  
Dew Point 49 °F    
Average Humidity 96    
Maximum Humidity 100    
Minimum Humidity 58    
Precipitation  
Precipitation 0.22 in - - ()
Sea Level Pressure  
Sea Level Pressure 30.14 in    
Wind  
Wind Speed 7 mph (North)    
Max Wind Speed 17 mph    
Max Gust Speed 21 mph    
Visibility 9 miles    
Events Rain    
Averages and records for this station are not official NWS values.
T = Trace of Precipitation, MM = Missing Value Source: NWS Daily Summary

Daily Weather History Graph

Daily Weather History Graph

Search for Another Location

Airport or City:

Trip Planner

Search our weather history database for the weather conditions in past years. The results will help you decide how hot, cold, wet, or windy it might be!

Date:

Astronomy

Sep. 16, 2013 Rise Set
Actual Time 6:43 AM EDT 7:11 PM EDT
Civil Twilight 6:14 AM EDT 7:39 PM EDT
Nautical Twilight 5:40 AM EDT 8:14 PM EDT
Astronomical Twilight 5:04 AM EDT 8:49 PM EDT
Moon 5:22 PM EDT (9/16) 3:21 AM EDT (9/16)
Length of Visible Light 13h 25m
Length of Day
12h 27m
Waxing Gibbous, 90% of the Moon is Illuminated
Sep 16
Waxing Gibbous
Sep 19
Full
Sep 26
Last Quarter
Oct 4
New
Oct 11
First Quarter

Hourly Weather History & Observations

Time (EDT) Temp. Windchill Dew Point Humidity Pressure Visibility Wind Dir Wind Speed Gust Speed Precip Events Conditions
12:03 AM 55.4 °F - 55.4 °F 100% 30.06 in 10.0 mi West 6.9 mph - N/A Rain Light Rain
12:08 AM 55.4 °F - 55.4 °F 100% 30.06 in 10.0 mi WSW 5.8 mph - N/A   Drizzle
12:18 AM 55.4 °F - 55.4 °F 100% 30.06 in 9.0 mi West 6.9 mph - N/A Rain Light Rain
12:23 AM 55.4 °F - 55.4 °F 100% 30.06 in 7.0 mi Variable 3.5 mph - N/A Rain Rain
12:28 AM 55.4 °F - 55.4 °F 100% 30.06 in 7.0 mi Variable 4.6 mph - N/A Rain Rain
12:33 AM 53.6 °F - 53.6 °F 100% 30.06 in 8.0 mi Variable 4.6 mph - N/A Rain Rain
12:38 AM 53.6 °F - 53.6 °F 100% 30.06 in 9.0 mi Variable 3.5 mph - N/A Rain Rain
12:43 AM 53.6 °F - 53.6 °F 100% 30.06 in 7.0 mi NW 4.6 mph - N/A Rain Rain
12:58 AM 53.6 °F - 53.6 °F 100% 30.06 in 5.0 mi NW 3.5 mph - 0.09 in Rain Rain
1:03 AM 53.6 °F - 53.6 °F 100% 30.06 in 6.0 mi Variable 2.3 mph - N/A Rain Rain
1:08 AM 53.6 °F - 53.6 °F 100% 30.06 in 6.0 mi West 3.5 mph - N/A Rain Rain
1:13 AM 53.6 °F - 53.6 °F 100% 30.06 in 6.0 mi Variable 6.9 mph - N/A Rain Light Rain
1:18 AM 53.6 °F - 53.6 °F 100% 30.06 in 9.0 mi WNW 4.6 mph - N/A Rain Light Rain
1:23 AM 53.6 °F - 53.6 °F 100% 30.06 in 10.0 mi West 4.6 mph - N/A Rain Light Rain
1:28 AM 53.6 °F - 53.6 °F 100% 30.06 in 10.0 mi West 4.6 mph - N/A Rain Light Rain
1:38 AM 53.6 °F - 53.6 °F 100% 30.06 in 10.0 mi WSW 2.3 mph - N/A Rain Light Rain
1:48 AM 53.6 °F - 53.6 °F 100% 30.06 in 10.0 mi West 5.8 mph - N/A Rain Light Rain
1:58 AM 53.6 °F - 53.6 °F 100% 30.06 in 8.0 mi Variable 4.6 mph - 0.06 in Rain Rain
2:08 AM 53.6 °F - 53.6 °F 100% 30.06 in 6.0 mi West 4.6 mph - N/A Rain Rain
2:18 AM 53.6 °F - 53.6 °F 100% 30.05 in 9.0 mi WSW 4.6 mph - N/A Rain Light Rain
2:23 AM 53.6 °F - 53.6 °F 100% 30.05 in 10.0 mi Variable 4.6 mph - N/A Rain Light Rain
2:28 AM 53.6 °F - 53.6 °F 100% 30.05 in 10.0 mi WSW 4.6 mph - N/A   Light Drizzle
2:33 AM 53.6 °F - 53.6 °F 100% 30.05 in 10.0 mi Variable 4.6 mph - N/A   Light Drizzle
2:40 AM 53.6 °F - 53.6 °F 100% 30.05 in 10.0 mi WSW 4.6 mph - N/A   Mostly Cloudy
2:46 AM 53.6 °F - 53.6 °F 100% 30.05 in 10.0 mi West 5.8 mph - N/A   Light Drizzle
2:58 AM 53.1 °F - 53.1 °F 100% 30.05 in 10.0 mi WSW 5.8 mph - 0.04 in Rain Light Rain
3:11 AM 53.6 °F - 53.6 °F 100% 30.05 in 10.0 mi Variable 4.6 mph - N/A   Mostly Cloudy
3:58 AM 52.7 °F - 52.7 °F 100% 30.04 in 10.0 mi WSW 3.5 mph - 0.00 in   Overcast
4:58 AM 52.5 °F - 52.5 °F 100% 30.06 in 10.0 mi West 3.5 mph - N/A   Overcast
5:30 AM 53.6 °F - 53.6 °F 100% 30.05 in 10.0 mi West 3.5 mph - N/A Rain Light Rain
5:40 AM 53.6 °F - 53.6 °F 100% 30.06 in 10.0 mi West 5.8 mph - N/A   Light Drizzle
5:45 AM 53.6 °F - 53.6 °F 100% 30.06 in 10.0 mi West 5.8 mph - N/A   Light Drizzle
5:50 AM 53.6 °F - 53.6 °F 100% 30.06 in 10.0 mi West 5.8 mph - N/A   Light Drizzle
5:55 AM 53.6 °F - 53.6 °F 100% 30.06 in 10.0 mi WNW 4.6 mph - N/A   Light Drizzle
5:58 AM 52.9 °F - 52.9 °F 100% 30.07 in 10.0 mi WNW 4.6 mph - 0.01 in   Light Drizzle
6:04 AM 53.6 °F - 53.6 °F 100% 30.07 in 10.0 mi Variable 5.8 mph - N/A   Overcast
6:05 AM 53.6 °F - 53.6 °F 100% 30.07 in 10.0 mi Variable 6.9 mph - N/A   Light Drizzle
6:08 AM 53.6 °F - 53.6 °F 100% 30.07 in 10.0 mi North 8.1 mph - N/A   Overcast
6:23 AM 51.8 °F - 51.8 °F 100% 30.09 in 10.0 mi North 8.1 mph - N/A   Overcast
6:43 AM 50.0 °F - 50.0 °F 100% 30.10 in 9.0 mi NNE 17.3 mph 20.7 mph N/A   Overcast
6:58 AM 48.0 °F - 48.0 °F 100% 30.12 in 10.0 mi NNE 8.1 mph - 0.00 in   Overcast
7:03 AM 48.2 °F - 48.2 °F 100% 30.12 in 10.0 mi NNE 11.5 mph - N/A   Overcast
7:13 AM 48.2 °F - 48.2 °F 100% 30.12 in 10.0 mi NNE 10.4 mph 18.4 mph N/A   Overcast
7:18 AM 48.2 °F - 48.2 °F 100% 30.12 in 10.0 mi NNE 11.5 mph 18.4 mph N/A   Overcast
7:38 AM 46.4 °F 41.1 °F 46.4 °F 100% 30.13 in 10.0 mi NNE 11.5 mph - N/A   Overcast
7:58 AM 46.6 °F - 46.4 °F 99% 30.15 in 10.0 mi NNE 12.7 mph - N/A   Overcast
8:03 AM 46.4 °F 41.1 °F 46.4 °F 100% 30.14 in 10.0 mi NE 11.5 mph 16.1 mph N/A   Overcast
8:13 AM 46.4 °F 41.9 °F 46.4 °F 100% 30.14 in 10.0 mi NNE 9.2 mph - N/A   Overcast
8:18 AM 46.4 °F 42.4 °F 46.4 °F 100% 30.15 in 10.0 mi NNE 8.1 mph - N/A   Overcast
8:38 AM 46.4 °F 41.5 °F 46.4 °F 100% 30.15 in 10.0 mi NE 10.4 mph - N/A   Overcast
8:47 AM 46.4 °F 42.4 °F 46.4 °F 100% 30.15 in 10.0 mi NE 8.1 mph - N/A   Light Drizzle
8:52 AM 46.4 °F 42.4 °F 46.4 °F 100% 30.15 in 7.0 mi ENE 8.1 mph - N/A   Light Drizzle
8:57 AM 46.4 °F 42.4 °F 46.4 °F 100% 30.15 in 5.0 mi NE 8.1 mph - N/A   Light Drizzle
8:58 AM 46.4 °F 42.9 °F 46.0 °F 99% 30.16 in 5.0 mi NE 6.9 mph - 0.00 in   Light Drizzle
9:28 AM 46.4 °F 41.9 °F 46.4 °F 100% 30.17 in 2.5 mi NE 9.2 mph - N/A   Light Drizzle
9:48 AM 46.4 °F 40.7 °F 46.4 °F 100% 30.18 in 3.0 mi NNE 12.7 mph - N/A   Light Drizzle
9:58 AM 46.2 °F 40.8 °F 46.2 °F 100% 30.19 in 4.0 mi NNE 11.5 mph - 0.01 in   Light Drizzle
10:06 AM 46.4 °F 40.7 °F 46.4 °F 100% 30.18 in 4.0 mi NNE 12.7 mph - N/A   Overcast
10:11 AM 46.4 °F 40.1 °F 46.4 °F 100% 30.18 in 8.0 mi NNE 15.0 mph - N/A   Overcast
10:26 AM 46.4 °F 39.8 °F 46.4 °F 100% 30.19 in 4.0 mi NNE 16.1 mph - N/A   Overcast
10:36 AM 46.4 °F 41.1 °F 46.4 °F 100% 30.19 in 9.0 mi NNE 11.5 mph - N/A   Overcast
10:40 AM 46.4 °F 40.4 °F 46.4 °F 100% 30.20 in 10.0 mi NE 13.8 mph - N/A Rain Light Rain
10:50 AM 46.4 °F 41.5 °F 46.4 °F 100% 30.20 in 10.0 mi North 10.4 mph - N/A Rain Light Rain
10:55 AM 46.4 °F 41.1 °F 44.6 °F 93% 30.20 in 10.0 mi NNE 11.5 mph - N/A   Light Drizzle
10:58 AM 45.7 °F 39.8 °F 45.5 °F 99% 30.21 in 10.0 mi NNE 12.7 mph - 0.01 in   Light Drizzle
11:00 AM 46.4 °F 41.5 °F 44.6 °F 93% 30.20 in 10.0 mi North 10.4 mph - N/A   Overcast
11:09 AM 46.4 °F 40.4 °F 46.4 °F 100% 30.20 in 10.0 mi NE 13.8 mph - N/A   Light Drizzle
11:26 AM 46.4 °F 41.5 °F 44.6 °F 93% 30.21 in 10.0 mi NNE 10.4 mph - N/A   Overcast
11:58 AM 46.8 °F - 46.0 °F 97% 30.23 in 10.0 mi NNE 10.4 mph - 0.00 in   Overcast
12:08 PM 46.4 °F 41.1 °F 46.4 °F 100% 30.22 in 10.0 mi North 11.5 mph - N/A   Overcast
12:58 PM 47.5 °F - 43.9 °F 87% 30.24 in 10.0 mi NNE 12.7 mph - N/A   Overcast
1:18 PM 48.2 °F - 42.8 °F 82% 30.22 in 10.0 mi North 13.8 mph - N/A   Overcast
1:58 PM 48.9 °F - 41.7 °F 76% 30.24 in 10.0 mi NNE 10.4 mph - N/A   Overcast
2:58 PM 50.2 °F - 39.6 °F 67% 30.25 in 10.0 mi NNE 8.1 mph - N/A   Mostly Cloudy
3:28 PM 51.8 °F - 39.2 °F 62% 30.23 in 10.0 mi North 10.4 mph - N/A   Mostly Cloudy
3:58 PM 52.7 °F - 39.2 °F 60% 30.24 in 10.0 mi North 8.1 mph - N/A   Mostly Cloudy
4:58 PM 53.2 °F - 38.8 °F 58% 30.26 in 10.0 mi NNE 10.4 mph - N/A   Mostly Cloudy
5:58 PM 51.6 °F - 37.6 °F 59% 30.28 in 10.0 mi North 4.6 mph - N/A   Scattered Clouds
6:58 PM 47.1 °F - 37.2 °F 68% 30.30 in 10.0 mi North 4.6 mph - N/A   Clear
7:58 PM 44.4 °F 42.0 °F 37.8 °F 77% 30.32 in 10.0 mi North 4.6 mph - N/A   Partly Cloudy
8:58 PM 42.4 °F 40.7 °F 37.6 °F 83% 30.35 in 10.0 mi North 3.5 mph - N/A   Clear
9:58 PM 41.2 °F 38.2 °F 37.8 °F 88% 30.37 in 10.0 mi North 4.6 mph - N/A   Clear
10:58 PM 36.7 °F - 35.8 °F 97% 30.38 in 10.0 mi Calm Calm - N/A   Clear
11:58 PM 37.4 °F - 36.5 °F 97% 30.39 in 10.0 mi Calm Calm - N/A   Clear